Regional Weather Roundup
Issued by NWS Sterling, VA

Home | Current Version | Previous Version | Graphics & Text | Print | Product List | Glossary On
Versions: 1 2 3 4 5 6 7 8 9 10 11 12 13 14 15 16 17 18 19 20 21 22 23 24 25 26 27 28 29 30 31 32 33 34 35 36 37 38 39 40 41 42 43 44 45 46 47 48 49 50
000
ASUS41 KLWX 300910
RWRLWX

REGIONAL WEATHER ROUNDUP
NATIONAL WEATHER SERVICE BALTIMORE MD/WASHINGTON DC
500 AM EDT MON MAY 30 2016

Note: "FAIR" indicates few or no clouds below 12,000 feet
with no significant weather and/or obstructions to visibility.
 TC=TEMPERATURE CELSIUS

 * =Non NWS site. Station does not report precipitation (e.g. rain,
    snow, etc.), thunder, or fog.

DCZ001-MDZ009-015-VAZ040>042-051-053>054-301000-
WASHINGTON METRO

CITY           SKY/WX    TMP DP  RH WIND       PRES   REMARKS
WASHINGTON NAT MOCLDY    69  64  84 CALM      30.00F
DULLES         MOCLDY    66  63  90 CALM      30.02S
ANDREWS AFB    CLOUDY    67  65  92 NW3       30.00S
FT BELVOIR     FAIR      66  64  94 CALM      30.00S FOG
QUANTICO       MOCLDY    69  67  93 NW3       30.01S
COLLEGE PARK*  FAIR      64  64 100 CALM      30.00S
LEESBURG*      MOCLDY    64  64 100 CALM      30.03S
MANASSAS*      CLOUDY    66  66 100 CALM      30.01S

$$

MDZ006>007-011-014-301000-
BALTIMORE METRO

CITY           SKY/WX    TMP DP  RH WIND       PRES   REMARKS
BWI AIRPORT    CLOUDY    66  64  93 CALM      30.00S
MD SCIENCE CTR   N/A     70  61  73 MISG      30.00S
MARTIN STATE   CLOUDY    68  68 100 CALM      30.01S
ANNAPOLIS      CLOUDY    68  66  93 CALM      29.99S
FORT MEADE*    CLOUDY    64  63  94 CALM      30.03S

$$

MDZ012-015-019>023-301000-
MARYLAND EASTERN SHORE

CITY           SKY/WX    TMP DP  RH WIND       PRES   REMARKS
OCEAN CITY     MOCLDY    70  68  93 VRB3      30.01S
SALISBURY      LGT RAIN  72  71  97 S7        30.00S FOG
BAY BRIDGE AP* CLOUDY    68  66  94 NW3       30.00S
CAMBRIDGE*     CLOUDY    72  72 100 S3        29.99S
EASTON*        CLOUDY    73  73 100 CALM      30.03F

$$

MDZ017>025-301000-
SOUTHERN MARYLAND

CITY           SKY/WX    TMP DP  RH WIND       PRES   REMARKS
PATUXENT RIVER CLOUDY    73  70  90 S3        29.99S
ST INIGOES     CLOUDY    73  72  96 CALM      29.99S
LEONARDTOWN*   CLOUDY    70  68  94 CALM      30.01S

$$

MDZ003>005-301000-
NORTH CENTRAL MARYLAND

CITY           SKY/WX    TMP DP  RH WIND       PRES   REMARKS
FREDERICK*     CLOUDY    63  63 100 CALM      30.04F
HAGERSTOWN APT CLOUDY    65  62  90 S3        30.02F
WESTMINSTER*   CLOUDY    64  61  88 CALM      30.02F

$$

MDZ501>502-301000-
WESTERN MARYLAND

CITY           SKY/WX    TMP DP  RH WIND       PRES   REMARKS
OAKLAND*       CLOUDY    57  50  77 SW6       30.10R
CUMBERLAND*    CLOUDY    63  63 100 CALM      30.07S

$$

VAZ025>031-301000-
SHENANDOAH VALLEY

CITY           SKY/WX    TMP DP  RH WIND       PRES   REMARKS
WINCHESTER*    MOCLDY    63  61  94 CALM      30.03S
FRONT ROYAL*   CLOUDY    63  61  94 SW3       30.03S
LURAY*         CLOUDY    61  61 100 SW3       30.04S
NEW MARKET*    CLOUDY    61  60  99 CALM      30.03F
STAUNTON*      CLOUDY    59  59  99 CALM      30.08F
WAYNESBORO*    CLOUDY    58  57  96 CALM      30.07F

$$

WVZ021-048>050-054>055-301000-
EASTERN WEST VIRGINIA PANHANDLE

CITY           SKY/WX    TMP DP  RH WIND       PRES   REMARKS
MARTINSBURG    CLOUDY    64  63  96 S3        30.01F FOG
PETERSBURG*    MOCLDY    61  61  99 CALM      30.05S

$$

VAZ036>039-050-301000-
CENTRAL FOOTHILLS

CITY           SKY/WX    TMP DP  RH WIND       PRES   REMARKS
CHARLOTTESVILL MOCLDY    63  59  87 CALM      30.02F
CULPEPER*      FAIR      64  64 100 CALM      30.03S FOG
ORANGE*        MOCLDY    64  64 100 CALM      30.03F
GORDONSVILLE*  PTSUNNY   63  63 100 CALM      30.01F
WARRENTON*     FAIR      66  62  86 CALM      30.01S FOG

$$

VAZ055>057-301000-
NORTH AND CENTRAL PIEDMONT

CITY           SKY/WX    TMP DP  RH WIND       PRES   REMARKS
FREDERICKSBRG* CLOUDY    67  67 100 CALM      30.01R
STAFFORD*      CLOUDY    65  64  94 CALM      30.05S

$$

NCZ024-NYZ072-PAZ021-071-VAZ022-071-301000-
OTHER REGIONAL OBSERVATIONS

CITY           SKY/WX    TMP DP  RH WIND       PRES   REMARKS
NEW YORK CITY  RAIN      70  68  93 CALM      30.02S FOG
PHILADELPHIA   CLOUDY    71  69  93 CALM      30.00R
PITTSBURGH     MOCLDY    62  58  86 CALM      30.01S
ROANOKE        MOCLDY    61  59  93 N5        30.08F
RICHMOND       FOG       67  67 100 NW3       30.00R VSB 1/2
RALEIGH        FOG       66  65  96 NE3       30.00S VSB 1/4

$$

ANZ530>537-301000-
MARINE OBSERVATIONS

STATION/POSITION TIME  TEMP    WIND        PRES
                       AIR SEA DIR/SP/G
                 (UTC) (F)     (DEG/KT/KT) (MB)
THOMAS PT LIGHT  0900   68 69  330/  3/  4 1017.3R
BALT KEY BRIDGE  0800   70     300/  8/ 10 1015.7F
COVE POINT       0800   69     340/  6/  7 1016.2F
LEWISETTA        0800   73 71  220/  5/  6 1015.2F
SOLOMONS ISLAND  0800   71 68  250/  1/  2   N/A
PINEY POINT      0800          200/  2/  3   N/A

$$




USA.gov is the U.S. government's official web portal to all federal, state and local government web resources and services.